Location: Duac?
(36.9744°N, 30.6500°E)
Time: 13:03:58
(UTC+00:00)

Cosmos 2297 Rocket - Pass Details

Date: 05 August 2024
Orbit: 837 x 844 km, 71.0° (Epoch: 11 September)

Event Time Altitude Azimuth Distance (km) Brightness Sun altitude
Rises 21:43:14 0° 326° (NW) 3,407 6.1 -36.2°
Reaches altitude 10° 21:45:58 10° 315° (NW) 2,468 5.1 -36.2°
Enters shadow 21:48:04 20° 299° (WNW) 1,868 4.2 -36.3°
